Regional Weather Roundup
Issued by NWS Albany, NY

Home | Current Version | Previous Version | Text Only | Print | Product List | Glossary On
Versions: 1 2 3 4 5 6 7 8 9 10 11 12 13 14 15 16 17 18 19 20 21 22 23 24 25 26 27 28 29 30 31 32 33 34 35 36 37 38 39 40 41 42 43 44 45 46 47 48 49 50
619
ASUS41 KALY 271110
RWRALY

NEW YORK STATE HOURLY WEATHER ROUNDUP
NATIONAL WEATHER SERVICE ALBANY NY
600 AM EST MON FEB 27 2017

NOTE: "FAIR" INDICATES FEW OR NO CLOUDS BELOW 12,000 FEET WITH NO
SIGNIFICANT WEATHER AND/OR NO OBSTRUCTIONS TO VISIBILITY.

NYZ032-033-038>043-046>054-057>066-NYZ062>081-082-084-271200-
EAST


CITY           SKY/WX    TMP DP  RH WIND       PRES   REMARKS
ALBANY         PTCLDY    29  17  61 S10       30.24R WCI  20
GLENS FALLS    CLEAR     28  17  63 S6        30.21R WCI  22
POUGHKEEPSIE   CLEAR     24  19  81 CALM      30.33R
NEWBURGH       CLEAR     27  19  74 CALM      30.33R
MONTGOMERY     CLEAR     26  18  71 SW7       30.31R WCI  18
WHITE PLAINS   CLEAR     32  16  51 W3        30.33R
ISLIP          CLEAR     31  22  69 SW3       30.37R
NEW YORK CITY  CLEAR     38  18  44 SW8       30.37R WCI  32
CENTRAL PARK   PTCLDY    35  19  52 VRB6      30.39R WCI  30
$$

NYZ005>009-017-018-044>046-055-056-271200-
CENTRAL


CITY           SKY/WX    TMP DP  RH WIND       PRES   REMARKS
FULTON         PTCLDY    35  19  52 S10       30.14R WCI  27
SYRACUSE       PTCLDY    36  16  44 SW16G24   30.15R WCI  26
ROME           PTCLDY    23  19  85 CALM      30.18R
ELMIRA         CLEAR     21  15  78 CALM      30.21S
BINGHAMTON     CLEAR     29  14  53 SW10      30.19R WCI  20
MONTICELLO     CLEAR    N/A N/A N/A CALM      30.27R
$$

NYZ026>034-041>043-087-271200-
NORTH


CITY           SKY/WX    TMP DP  RH WIND       PRES   REMARKS
WATERTOWN      MOCLDY    35  22  58 S15G22    30.10R WCI  25
FORT DRUM      NOT AVBL
MASSENA        CLOUDY    35  22  58 SW17G26   30.04R WCI  25
SARANAC LAKE   CLEAR     26  19  74 SW9       30.02R WCI  17
PLATTSBURGH    CLEAR     30  22  72 S13G24    30.08R WCI  20
$$

NYZ001>004-010>016-019>021-085-271200-
WEST


CITY           SKY/WX    TMP DP  RH WIND       PRES   REMARKS
NIAGARA FALLS  MOCLDY    39  23  52 SW14G24   30.13R WCI  31
BUFFALO        PTCLDY    38  18  44 SW18G28   30.13R WCI  28
DUNKIRK        CLOUDY    36  19  50 S15       30.18R WCI  27
JAMESTOWN      CLOUDY    30  14  51 S9        30.17R WCI  22
WELLSVILLE     CLEAR     32  13  45 SW9       30.16R WCI  24
ROCHESTER      CLEAR     38  18  44 SW12      30.13R WCI  30
PENN YAN       CLEAR     34  15  46 S13       30.17R WCI  25
$$

             KEY
       WCI = WIND CHILL INDEX
       VSB = VISIBILITY
       HX  = HEAT INDEX
$$




USA.gov is the U.S. government's official web portal to all federal, state and local government web resources and services.